Time,TemperatureF,DewpointF,PressureIn,WindDirection,WindDirectionDegrees,WindSpeedMPH,WindSpeedGustMPH,Humidity,HourlyPrecipIn,Conditions,Clouds,dailyrainin,SoftwareType,DateUTC
2013-02-02 00:03:00,21.0,3.0,-100.00,WNW,285,7.0,15.0,45,-99.99,,,-99.99,,2013-02-02 05:03:00,
2013-02-02 00:12:00,21.0,3.0,-100.00,WNW,295,9.0,15.0,45,-99.99,,,-99.99,,2013-02-02 05:12:00,
2013-02-02 00:42:00,21.0,4.0,-100.00,WNW,295,7.0,13.0,48,-99.99,,,-99.99,,2013-02-02 05:42:00,
2013-02-02 00:52:00,21.0,4.0,-100.00,NNW,330,7.0,13.0,47,-99.99,,,-99.99,,2013-02-02 05:52:00,
2013-02-02 01:02:00,21.0,4.0,-100.00,NW,310,6.0,13.0,48,-99.99,,,-99.99,,2013-02-02 06:02:00,
2013-02-02 02:02:00,20.0,5.0,-100.00,WNW,285,5.0,8.0,51,-99.99,,,-99.99,,2013-02-02 07:02:00,
2013-02-02 02:12:00,20.0,5.0,-100.00,WNW,290,3.0,9.0,51,-99.99,,,-99.99,,2013-02-02 07:12:00,
2013-02-02 02:21:00,20.0,5.0,-100.00,WNW,300,5.0,8.0,51,-99.99,,,-99.99,,2013-02-02 07:21:00,
2013-02-02 03:01:00,21.0,5.0,-100.00,WNW,295,5.0,13.0,51,-99.99,,,-99.99,,2013-02-02 08:01:00,
2013-02-02 03:21:00,21.0,6.0,-100.00,WNW,295,10.0,17.0,53,-99.99,,,-99.99,,2013-02-02 08:21:00,
2013-02-02 03:32:00,21.0,6.0,-100.00,WNW,295,10.0,17.0,53,-99.99,,,-99.99,,2013-02-02 08:32:00,
2013-02-02 03:42:00,21.0,6.0,-100.00,WNW,295,10.0,17.0,53,-99.99,,,-99.99,,2013-02-02 08:42:00,
2013-02-02 03:52:00,20.0,6.0,-100.00,WNW,300,9.0,17.0,54,-99.99,,,-99.99,,2013-02-02 08:52:00,
2013-02-02 04:02:00,20.0,6.0,-100.00,NNW,330,6.0,16.0,54,-99.99,,,-99.99,,2013-02-02 09:02:00,
2013-02-02 05:11:00,20.0,5.0,-100.00,NW,305,8.0,18.0,53,-99.99,,,-99.99,,2013-02-02 10:11:00,
2013-02-02 05:21:00,20.0,5.0,-100.00,NW,305,8.0,18.0,53,-99.99,,,-99.99,,2013-02-02 10:21:00,
2013-02-02 06:22:00,18.0,4.0,-100.00,NW,325,7.0,10.0,53,-99.99,,,-99.99,,2013-02-02 11:22:00,
2013-02-02 06:32:00,18.0,4.0,-100.00,NW,310,5.0,10.0,53,-99.99,,,-99.99,,2013-02-02 11:32:00,
2013-02-02 07:22:00,17.0,3.0,-100.00,WNW,285,2.0,8.0,53,-99.99,,,-99.99,,2013-02-02 12:22:00,
2013-02-02 07:32:00,17.0,2.0,-100.00,WNW,285,3.0,7.0,51,-99.99,,,-99.99,,2013-02-02 12:32:00,
2013-02-02 07:42:00,17.0,2.0,-100.00,WNW,290,6.0,10.0,51,-99.99,,,-99.99,,2013-02-02 12:42:00,
2013-02-02 07:52:00,17.0,2.0,-100.00,WNW,285,5.0,9.0,51,-99.99,,,-99.99,,2013-02-02 12:52:00,
2013-02-02 08:03:00,17.0,2.0,-100.00,NW,310,3.0,8.0,51,-99.99,,,-99.99,,2013-02-02 13:03:00,
2013-02-02 08:11:00,17.0,2.0,-100.00,WNW,300,2.0,5.0,51,-99.99,,,-99.99,,2013-02-02 13:11:00,
2013-02-02 08:22:00,17.0,2.0,-100.00,WNW,295,3.0,6.0,51,-99.99,,,-99.99,,2013-02-02 13:22:00,
2013-02-02 08:33:00,18.0,3.0,-100.00,NNW,335,1.0,5.0,52,-99.99,,,-99.99,,2013-02-02 13:33:00,
2013-02-02 08:42:00,18.0,3.0,-100.00,NW,310,2.0,5.0,51,-99.99,,,-99.99,,2013-02-02 13:42:00,
2013-02-02 09:42:00,22.0,3.0,-100.00,WSW,250,5.0,10.0,44,-99.99,,,-99.99,,2013-02-02 14:42:00,
2013-02-02 09:52:00,22.0,3.0,-100.00,West,275,7.0,10.0,44,-99.99,,,-99.99,,2013-02-02 14:52:00,
2013-02-02 10:03:00,21.0,3.0,-100.00,West,270,5.0,13.0,45,-99.99,,,-99.99,,2013-02-02 15:03:00,
2013-02-02 10:13:00,22.0,3.0,-100.00,WNW,290,5.0,13.0,43,-99.99,,,-99.99,,2013-02-02 15:13:00,
2013-02-02 10:22:00,23.0,3.0,-100.00,West,265,5.0,10.0,42,-99.99,,,-99.99,,2013-02-02 15:22:00,
2013-02-02 10:33:00,24.0,4.0,-100.00,WSW,255,6.0,10.0,41,-99.99,,,-99.99,,2013-02-02 15:33:00,
2013-02-02 10:42:00,24.0,1.0,-100.00,WNW,285,7.0,14.0,37,-99.99,,,-99.99,,2013-02-02 15:42:00,
2013-02-02 10:52:00,25.0,2.0,-100.00,NW,320,7.0,12.0,36,-99.99,,,-99.99,,2013-02-02 15:52:00,
2013-02-02 11:03:00,25.0,1.0,-100.00,West,275,5.0,12.0,35,-99.99,,,-99.99,,2013-02-02 16:03:00,
2013-02-02 11:42:00,25.0,2.0,-100.00,NNW,335,8.0,12.0,37,-99.99,,,-99.99,,2013-02-02 16:42:00,
2013-02-02 11:52:00,27.0,2.0,-100.00,West,260,6.0,13.0,34,-99.99,,,-99.99,,2013-02-02 16:52:00,
2013-02-02 12:03:00,27.0,2.0,-100.00,South,180,3.0,14.0,34,-99.99,,,-99.99,,2013-02-02 17:03:00,
2013-02-02 12:33:00,28.0,4.0,-100.00,SW,225,5.0,13.0,36,-99.99,,,-99.99,,2013-02-02 17:33:00,
2013-02-02 12:42:00,27.0,5.0,-100.00,SW,215,10.0,15.0,37,-99.99,,,-99.99,,2013-02-02 17:42:00,
2013-02-02 12:52:00,27.0,5.0,-100.00,SSW,210,7.0,15.0,37,-99.99,,,-99.99,,2013-02-02 17:52:00,
2013-02-02 13:03:00,28.0,4.0,-100.00,West,270,6.0,12.0,35,-99.99,,,-99.99,,2013-02-02 18:03:00,
2013-02-02 13:42:00,29.0,6.0,-100.00,WSW,255,6.0,16.0,36,-99.99,,,-99.99,,2013-02-02 18:42:00,
2013-02-02 13:52:00,29.0,5.0,-100.00,SSW,195,7.0,14.0,36,-99.99,,,-99.99,,2013-02-02 18:52:00,
2013-02-02 14:02:00,29.0,6.0,-100.00,WNW,290,3.0,20.0,36,-99.99,,,-99.99,,2013-02-02 19:02:00,
2013-02-02 14:12:00,29.0,5.0,-100.00,WSW,250,5.0,10.0,35,-99.99,,,-99.99,,2013-02-02 19:12:00,
2013-02-02 14:22:00,29.0,5.0,-100.00,SW,235,7.0,17.0,35,-99.99,,,-99.99,,2013-02-02 19:22:00,
2013-02-02 14:32:00,30.0,7.0,-100.00,West,275,8.0,18.0,36,-99.99,,,-99.99,,2013-02-02 19:32:00,
2013-02-02 14:42:00,30.0,6.0,-100.00,West,265,9.0,17.0,36,-99.99,,,-99.99,,2013-02-02 19:42:00,
2013-02-02 14:52:00,31.0,6.0,-100.00,WSW,250,6.0,17.0,35,-99.99,,,-99.99,,2013-02-02 19:52:00,
2013-02-02 15:02:00,30.0,6.0,-100.00,SSW,205,3.0,14.0,35,-99.99,,,-99.99,,2013-02-02 20:02:00,
2013-02-02 15:12:00,30.0,7.0,-100.00,WSW,245,5.0,9.0,36,-99.99,,,-99.99,,2013-02-02 20:12:00,
2013-02-02 15:52:00,29.0,7.0,-100.00,SW,215,10.0,15.0,39,-99.99,,,-99.99,,2013-02-02 20:52:00,
2013-02-02 16:02:00,29.0,7.0,-100.00,SW,215,8.0,15.0,39,-99.99,,,-99.99,,2013-02-02 21:02:00,
2013-02-02 17:12:00,28.0,7.0,-100.00,South,190,6.0,14.0,41,-99.99,,,-99.99,,2013-02-02 22:12:00,
2013-02-02 17:22:00,28.0,7.0,-100.00,South,190,6.0,14.0,41,-99.99,,,-99.99,,2013-02-02 22:22:00,
2013-02-02 17:32:00,28.0,6.0,-100.00,SSW,210,7.0,10.0,39,-99.99,,,-99.99,,2013-02-02 22:32:00,
2013-02-02 17:42:00,28.0,6.0,-100.00,SW,220,3.0,14.0,39,-99.99,,,-99.99,,2013-02-02 22:42:00,
2013-02-02 18:22:00,27.0,6.0,-100.00,SSW,210,7.0,14.0,40,-99.99,,,-99.99,,2013-02-02 23:22:00,
2013-02-02 18:32:00,27.0,6.0,-100.00,SSW,210,5.0,13.0,41,-99.99,,,-99.99,,2013-02-02 23:32:00,
2013-02-02 18:42:00,27.0,6.0,-100.00,SSW,205,5.0,10.0,41,-99.99,,,-99.99,,2013-02-02 23:42:00,
2013-02-02 18:52:00,27.0,6.0,-100.00,SSW,195,5.0,12.0,41,-99.99,,,-99.99,,2013-02-02 23:52:00,
2013-02-02 19:02:00,27.0,6.0,-100.00,South,185,2.0,9.0,41,-99.99,,,-99.99,,2013-02-03 00:02:00,
2013-02-02 19:42:00,26.0,8.0,-100.00,SW,215,6.0,10.0,46,-99.99,,,-99.99,,2013-02-03 00:42:00,
2013-02-02 19:52:00,26.0,8.0,-100.00,SW,230,7.0,14.0,46,-99.99,,,-99.99,,2013-02-03 00:52:00,
2013-02-02 20:02:00,26.0,8.0,-100.00,SW,220,7.0,13.0,46,-99.99,,,-99.99,,2013-02-03 01:02:00,
2013-02-02 20:32:00,26.0,10.0,-100.00,SSW,200,5.0,8.0,51,-99.99,,,-99.99,,2013-02-03 01:32:00,
2013-02-02 20:42:00,26.0,10.0,-100.00,SSW,200,5.0,8.0,51,-99.99,,,-99.99,,2013-02-03 01:42:00,
2013-02-02 20:52:00,26.0,10.0,-100.00,West,270,3.0,8.0,51,-99.99,,,-99.99,,2013-02-03 01:52:00,
2013-02-02 21:01:00,26.0,10.0,-100.00,WSW,255,3.0,6.0,51,-99.99,,,-99.99,,2013-02-03 02:01:00,
2013-02-02 21:11:00,26.0,10.0,-100.00,WSW,245,5.0,8.0,51,-99.99,,,-99.99,,2013-02-03 02:11:00,
2013-02-02 21:21:00,26.0,10.0,-100.00,SW,235,5.0,10.0,51,-99.99,,,-99.99,,2013-02-03 02:21:00,
2013-02-02 21:32:00,26.0,11.0,-100.00,South,185,2.0,6.0,53,-99.99,,,-99.99,,2013-02-03 02:32:00,
2013-02-02 21:42:00,26.0,11.0,-100.00,South,180,1.0,7.0,53,-99.99,,,-99.99,,2013-02-03 02:42:00,
2013-02-02 21:52:00,26.0,11.0,-100.00,SSW,200,2.0,6.0,53,-99.99,,,-99.99,,2013-02-03 02:52:00,
2013-02-02 22:02:00,26.0,11.0,-100.00,South,185,2.0,5.0,53,-99.99,,,-99.99,,2013-02-03 03:02:00,
2013-02-02 22:11:00,26.0,11.0,-100.00,South,185,2.0,5.0,53,-99.99,,,-99.99,,2013-02-03 03:11:00,
2013-02-02 22:22:00,26.0,11.0,-100.00,SSW,195,1.0,6.0,53,-99.99,,,-99.99,,2013-02-03 03:22:00,
2013-02-02 22:32:00,26.0,10.0,-100.00,SW,215,2.0,3.0,51,-99.99,,,-99.99,,2013-02-03 03:32:00,
2013-02-02 22:42:00,26.0,10.0,-100.00,East,90,1.0,3.0,52,-99.99,,,-99.99,,2013-02-03 03:42:00,
2013-02-02 22:51:00,26.0,10.0,-100.00,West,265,2.0,6.0,52,-99.99,,,-99.99,,2013-02-03 03:51:00,
2013-02-02 23:01:00,26.0,10.0,-100.00,WSW,250,2.0,7.0,52,-99.99,,,-99.99,,2013-02-03 04:01:00,
2013-02-02 23:11:00,26.0,10.0,-100.00,WSW,255,2.0,7.0,52,-99.99,,,-99.99,,2013-02-03 04:11:00,
2013-02-02 23:22:00,26.0,10.0,-100.00,WSW,255,2.0,7.0,52,-99.99,,,-99.99,,2013-02-03 04:22:00,
2013-02-02 23:32:00,26.0,13.0,-100.00,SW,235,2.0,6.0,58,-99.99,,,-99.99,,2013-02-03 04:32:00,